Tuscaloosa, AL

10:41 PM CDT on July 21, 2017 (GMT -0500)
Tuscaloosa Municipal

Weather History for KTCL - May, 2013

Change the Weather History Date:

Monday, May 20, 2013

  Actual Average Record
Temperature  
Mean Temperature 80 °F 73 °F  
Max Temperature 89 °F 84 °F 96 °F (1962)
Min Temperature 70 °F 61 °F 43 °F (2002)
Cooling Degree Days 14    
Growing Degree Days 30 (Base 50)    
Moisture  
Dew Point 69 °F    
Average Humidity 73    
Maximum Humidity 93    
Minimum Humidity 53    
Precipitation  
Precipitation 0.00 in 0.14 in 3.50 in (1990)
Month to date precipitation 2.49 2.56  
Year to date precipitation 21.93 21.98  
Sea Level Pressure  
Sea Level Pressure 30.01 in    
Wind  
Wind Speed 6 mph (South)    
Max Wind Speed 12 mph    
Max Gust Speed 17 mph    
Visibility 8 miles    
Events      
T = Trace of Precipitation, MM = Missing Value Source: NWS Daily Summary

Daily Weather History Graph

Daily Weather History Graph

Search for Another Location

Airport or City:

Trip Planner

Search our weather history database for the weather conditions in past years. The results will help you decide how hot, cold, wet, or windy it might be!

Date:

Astronomy

May. 20, 2013 Rise Set
Actual Time 5:47 AM CDT 7:47 PM CDT
Civil Twilight 5:19 AM CDT 8:14 PM CDT
Nautical Twilight 4:46 AM CDT 8:48 PM CDT
Astronomical Twilight 4:10 AM CDT 9:24 PM CDT
Moon 3:07 PM CDT (5/20) 2:26 AM CDT (5/20)
Length of Visible Light 14h 55m
Length of Day
13h 59m
Waxing Gibbous, 75% of the Moon is Illuminated
May 20
Waxing Gibbous
May 24
Full
May 31
Last Quarter
Jun 8
New
Jun 16
First Quarter

Hourly Weather History & Observations

Time (CDT) Temp. Heat Index Dew Point Humidity Pressure Visibility Wind Dir Wind Speed Gust Speed Precip Events Conditions
12:53 AM 72.0 °F - 69.1 °F 91% 29.98 in 6.0 mi North - - N/A   Clear
1:53 AM 71.1 °F - 68.0 °F 90% 29.98 in 6.0 mi SE 3.5 mph - N/A   Clear
2:53 AM 71.1 °F - 68.0 °F 90% 29.98 in 6.0 mi Calm Calm - N/A   Clear
3:53 AM 72.0 °F - 69.1 °F 91% 29.98 in 6.0 mi Calm Calm - N/A   Clear
4:53 AM 72.0 °F - 69.1 °F 91% 29.99 in 8.0 mi South 9.2 mph - N/A   Mostly Cloudy
5:53 AM 71.1 °F - 68.0 °F 90% 30.01 in 5.0 mi Calm Calm - N/A   Overcast
6:53 AM 71.1 °F - 69.1 °F 93% 30.03 in 4.0 mi Calm Calm - N/A   Overcast
7:53 AM 73.0 °F - 69.1 °F 87% 30.05 in 6.0 mi SSE 4.6 mph - N/A   Overcast
8:06 AM 73.4 °F - 69.8 °F 88% 30.06 in 6.0 mi SSE 3.5 mph - N/A   Overcast
9:28 AM 77.0 °F - 69.8 °F 78% 30.07 in 8.0 mi SSW 6.9 mph - N/A   Mostly Cloudy
9:43 AM 78.8 °F - 69.8 °F 74% 30.07 in 9.0 mi South 5.8 mph - N/A   Mostly Cloudy
9:53 AM 78.1 °F - 69.1 °F 74% 30.06 in 9.0 mi SSE 4.6 mph - N/A   Mostly Cloudy
10:49 AM 80.6 °F 83.9 °F 69.8 °F 70% 30.06 in 10.0 mi Calm Calm - N/A   Mostly Cloudy
10:53 AM 81.0 °F 84.1 °F 69.1 °F 67% 30.06 in 10.0 mi Calm Calm - N/A   Mostly Cloudy
11:07 AM 80.6 °F 83.9 °F 69.8 °F 70% 30.06 in 10.0 mi SSE 6.9 mph - N/A   Scattered Clouds
11:53 AM 82.0 °F 85.5 °F 69.1 °F 65% 30.05 in 10.0 mi Variable 5.8 mph - N/A   Partly Cloudy
12:53 PM 84.0 °F 87.8 °F 69.1 °F 61% 30.03 in 10.0 mi SSW 5.8 mph - N/A   Clear
1:53 PM 86.0 °F 90.1 °F 69.1 °F 57% 30.01 in 10.0 mi Variable 6.9 mph - N/A   Partly Cloudy
2:53 PM 88.0 °F 92.1 °F 69.1 °F 53% 29.99 in 10.0 mi SSW 8.1 mph - N/A   Clear
3:53 PM 87.1 °F 90.6 °F 68.0 °F 53% 29.98 in 10.0 mi South 8.1 mph - N/A   Partly Cloudy
4:53 PM 88.0 °F 91.4 °F 68.0 °F 51% 29.97 in 10.0 mi SSW 9.2 mph - N/A   Scattered Clouds
5:53 PM 87.1 °F 90.6 °F 68.0 °F 53% 29.96 in 10.0 mi SSW 5.8 mph - N/A   Clear
6:53 PM 84.9 °F 88.2 °F 68.0 °F 57% 29.95 in 10.0 mi South 6.9 mph - N/A   Clear
7:53 PM 82.9 °F 85.8 °F 68.0 °F 60% 29.94 in 10.0 mi SE 8.1 mph - N/A   Clear
9:53 PM 81.0 °F 83.8 °F 68.0 °F 65% 29.96 in 10.0 mi Variable 6.9 mph - N/A   Clear
10:53 PM 80.1 °F 82.7 °F 68.0 °F 67% 29.96 in 10.0 mi SE 9.2 mph - N/A   Clear
11:53 PM 77.0 °F - 68.0 °F 74% 29.97 in 10.0 mi South 4.6 mph - N/A   Clear